owner,sensor,date,latitude,longitude,vertical_datum,sea_water_temperature,qcFlag
Chevron,ioos:station:wmo:42372:2,2023-07-01T00:02:00Z,27.7790,-90.5190,13.2,29.1,11111222
Chevron,ioos:station:wmo:42372:2,2023-07-01T00:12:00Z,27.7790,-90.5190,13.1,29.1,11111222
Chevron,ioos:station:wmo:42372:2,2023-07-01T00:22:00Z,27.7790,-90.5190,13.1,29.1,11111222
Chevron,ioos:station:wmo:42372:2,2023-07-01T00:32:00Z,27.7790,-90.5190,13.2,29.1,11111222
Chevron,ioos:station:wmo:42372:2,2023-07-01T00:42:00Z,27.7790,-90.5190,13.0,29.1,11111222
Chevron,ioos:station:wmo:42372:2,2023-07-01T00:52:00Z,27.7790,-90.5190,13.3,29.1,11111222
Chevron,ioos:station:wmo:42372:2,2023-07-01T01:02:00Z,27.7790,-90.5190,13.1,29.2,11111222
Chevron,ioos:station:wmo:42372:2,2023-07-01T01:12:00Z,27.7790,-90.5190,13.0,29.2,11111222
Chevron,ioos:station:wmo:42372:2,2023-07-01T01:22:00Z,27.7790,-90.5190,13.0,29.2,11111222
Chevron,ioos:station:wmo:42372:2,2023-07-01T01:32:00Z,27.7790,-90.5190,13.1,29.1,11111222
Chevron,ioos:station:wmo:42372:2,2023-07-01T01:42:00Z,27.7790,-90.5190,13.0,29.3,11111222
Chevron,ioos:station:wmo:42372:2,2023-07-01T01:52:00Z,27.7790,-90.5190,13.0,29.3,11111222
Chevron,ioos:station:wmo:42372:2,2023-07-01T02:02:00Z,27.7790,-90.5190,13.1,29.3,11111222
Chevron,ioos:station:wmo:42372:2,2023-07-01T02:12:00Z,27.7790,-90.5190,13.0,29.3,11111222
Chevron,ioos:station:wmo:42372:2,2023-07-01T02:22:00Z,27.7790,-90.5190,13.1,29.3,11111222
Chevron,ioos:station:wmo:42372:2,2023-07-01T02:32:00Z,27.7790,-90.5190,13.1,29.4,11111222
Chevron,ioos:station:wmo:42372:2,2023-07-01T02:42:00Z,27.7790,-90.5190,13.2,29.1,11111222
Chevron,ioos:station:wmo:42372:2,2023-07-01T02:52:00Z,27.7790,-90.5190,13.2,29.0,11111222
Chevron,ioos:station:wmo:42372:2,2023-07-01T03:02:00Z,27.7790,-90.5190,13.1,29.0,11111222
Chevron,ioos:station:wmo:42372:2,2023-07-01T03:12:00Z,27.7790,-90.5190,13.2,29.0,11111222
Chevron,ioos:station:wmo:42372:2,2023-07-01T03:22:00Z,27.7790,-90.5190,13.1,29.0,11111222
Chevron,ioos:station:wmo:42372:2,2023-07-01T03:32:00Z,27.7790,-90.5190,13.2,28.9,11111222
Chevron,ioos:station:wmo:42372:2,2023-07-01T03:42:00Z,27.7790,-90.5190,13.1,29.0,11111222
Chevron,ioos:station:wmo:42372:2,2023-07-01T03:52:00Z,27.7790,-90.5190,13.3,28.8,11111222
Chevron,ioos:station:wmo:42372:2,2023-07-01T04:02:00Z,27.7790,-90.5190,13.2,28.7,11111222
Chevron,ioos:station:wmo:42372:2,2023-07-01T04:12:00Z,27.7790,-90.5190,12.9,28.6,11111222
Chevron,ioos:station:wmo:42372:2,2023-07-01T04:22:00Z,27.7790,-90.5190,13.0,28.3,11111222
Chevron,ioos:station:wmo:42372:2,2023-07-01T04:32:00Z,27.7790,-90.5190,13.0,28.4,11111222
Chevron,ioos:station:wmo:42372:2,2023-07-01T04:42:00Z,27.7790,-90.5190,12.9,28.5,11111222
Chevron,ioos:station:wmo:42372:2,2023-07-01T04:52:00Z,27.7790,-90.5190,13.1,28.6,11111222
Chevron,ioos:station:wmo:42372:2,2023-07-01T05:02:00Z,27.7790,-90.5190,13.0,28.6,11111222
Chevron,ioos:station:wmo:42372:2,2023-07-01T05:12:00Z,27.7790,-90.5190,13.0,28.6,11111222
Chevron,ioos:station:wmo:42372:2,2023-07-01T05:22:00Z,27.7790,-90.5190,13.3,28.9,11111222
Chevron,ioos:station:wmo:42372:2,2023-07-01T05:32:00Z,27.7790,-90.5190,13.3,28.9,11111222
Chevron,ioos:station:wmo:42372:2,2023-07-01T05:42:00Z,27.7790,-90.5190,13.2,29.0,11111222
Chevron,ioos:station:wmo:42372:2,2023-07-01T05:52:00Z,27.7790,-90.5190,13.1,28.8,11111222
Chevron,ioos:station:wmo:42372:2,2023-07-01T06:02:00Z,27.7790,-90.5190,13.2,28.8,11111222
Chevron,ioos:station:wmo:42372:2,2023-07-01T06:12:00Z,27.7790,-90.5190,13.2,28.8,11111222
Chevron,ioos:station:wmo:42372:2,2023-07-01T06:22:00Z,27.7790,-90.5190,13.3,28.9,11111222
Chevron,ioos:station:wmo:42372:2,2023-07-01T06:32:00Z,27.7790,-90.5190,13.3,28.9,11111222
Chevron,ioos:station:wmo:42372:2,2023-07-01T06:42:00Z,27.7790,-90.5190,13.2,28.9,11111222
Chevron,ioos:station:wmo:42372:2,2023-07-01T06:52:00Z,27.7790,-90.5190,13.3,28.9,11111222
Chevron,ioos:station:wmo:42372:2,2023-07-01T07:02:00Z,27.7790,-90.5190,13.1,28.8,11111222
Chevron,ioos:station:wmo:42372:2,2023-07-01T07:12:00Z,27.7790,-90.5190,13.4,28.8,11111222
Chevron,ioos:station:wmo:42372:2,2023-07-01T07:22:00Z,27.7790,-90.5190,13.3,28.7,11111222
Chevron,ioos:station:wmo:42372:2,2023-07-01T07:32:00Z,27.7790,-90.5190,13.3,28.8,11111222
Chevron,ioos:station:wmo:42372:2,2023-07-01T07:42:00Z,27.7790,-90.5190,13.3,28.8,11111222
Chevron,ioos:station:wmo:42372:2,2023-07-01T07:52:00Z,27.7790,-90.5190,13.2,28.8,11111222
Chevron,ioos:station:wmo:42372:2,2023-07-01T08:02:00Z,27.7790,-90.5190,13.2,28.9,11111222
Chevron,ioos:station:wmo:42372:2,2023-07-01T08:12:00Z,27.7790,-90.5190,13.2,29.2,11111222
Chevron,ioos:station:wmo:42372:2,2023-07-01T08:22:00Z,27.7790,-90.5190,13.1,29.3,11111222
Chevron,ioos:station:wmo:42372:2,2023-07-01T08:32:00Z,27.7790,-90.5190,13.1,29.2,11111222
Chevron,ioos:station:wmo:42372:2,2023-07-01T08:42:00Z,27.7790,-90.5190,13.1,29.2,11111222
Chevron,ioos:station:wmo:42372:2,2023-07-01T08:52:00Z,27.7790,-90.5190,13.3,29.0,11111222
Chevron,ioos:station:wmo:42372:2,2023-07-01T09:02:00Z,27.7790,-90.5190,13.1,29.0,11111222
Chevron,ioos:station:wmo:42372:2,2023-07-01T09:12:00Z,27.7790,-90.5190,13.3,29.1,11111222
Chevron,ioos:station:wmo:42372:2,2023-07-01T09:22:00Z,27.7790,-90.5190,13.1,29.2,11111222
Chevron,ioos:station:wmo:42372:2,2023-07-01T09:32:00Z,27.7790,-90.5190,13.0,29.4,11111222
Chevron,ioos:station:wmo:42372:2,2023-07-01T09:42:00Z,27.7790,-90.5190,13.0,29.5,11111222
Chevron,ioos:station:wmo:42372:2,2023-07-01T09:52:00Z,27.7790,-90.5190,13.1,29.5,11111222
Chevron,ioos:station:wmo:42372:2,2023-07-01T10:02:00Z,27.7790,-90.5190,12.9,29.5,11111222
Chevron,ioos:station:wmo:42372:2,2023-07-01T10:12:00Z,27.7790,-90.5190,13.1,29.5,11111222
Chevron,ioos:station:wmo:42372:2,2023-07-01T10:22:00Z,27.7790,-90.5190,13.1,29.5,11111222
Chevron,ioos:station:wmo:42372:2,2023-07-01T10:32:00Z,27.7790,-90.5190,13.2,29.4,11111222
Chevron,ioos:station:wmo:42372:2,2023-07-01T10:42:00Z,27.7790,-90.5190,13.1,29.4,11111222
Chevron,ioos:station:wmo:42372:2,2023-07-01T10:52:00Z,27.7790,-90.5190,13.3,29.1,11111222
Chevron,ioos:station:wmo:42372:2,2023-07-01T11:02:00Z,27.7790,-90.5190,13.4,28.9,11111222
Chevron,ioos:station:wmo:42372:2,2023-07-01T11:12:00Z,27.7790,-90.5190,13.3,28.8,11111222
Chevron,ioos:station:wmo:42372:2,2023-07-01T11:22:00Z,27.7790,-90.5190,13.2,29.0,11111222
Chevron,ioos:station:wmo:42372:2,2023-07-01T11:32:00Z,27.7790,-90.5190,13.1,29.3,11111222
Chevron,ioos:station:wmo:42372:2,2023-07-01T11:42:00Z,27.7790,-90.5190,13.1,29.3,11111222
Chevron,ioos:station:wmo:42372:2,2023-07-01T11:52:00Z,27.7790,-90.5190,13.3,29.2,11111222
Chevron,ioos:station:wmo:42372:2,2023-07-01T12:02:00Z,27.7790,-90.5190,13.0,29.4,11111222
Chevron,ioos:station:wmo:42372:2,2023-07-01T12:12:00Z,27.7790,-90.5190,13.1,29.6,11111222
Chevron,ioos:station:wmo:42372:2,2023-07-01T12:22:00Z,27.7790,-90.5190,13.1,29.6,11111222
Chevron,ioos:station:wmo:42372:2,2023-07-01T12:32:00Z,27.7790,-90.5190,13.0,29.6,11111222
Chevron,ioos:station:wmo:42372:2,2023-07-01T12:42:00Z,27.7790,-90.5190,13.1,29.5,11111222
Chevron,ioos:station:wmo:42372:2,2023-07-01T12:52:00Z,27.7790,-90.5190,13.2,29.5,11111222
Chevron,ioos:station:wmo:42372:2,2023-07-01T13:02:00Z,27.7790,-90.5190,13.1,29.6,11111222
Chevron,ioos:station:wmo:42372:2,2023-07-01T13:12:00Z,27.7790,-90.5190,13.1,29.6,11111222
Chevron,ioos:station:wmo:42372:2,2023-07-01T13:22:00Z,27.7790,-90.5190,12.9,29.7,11111222
Chevron,ioos:station:wmo:42372:2,2023-07-01T13:32:00Z,27.7790,-90.5190,13.0,29.7,11111222
Chevron,ioos:station:wmo:42372:2,2023-07-01T13:42:00Z,27.7790,-90.5190,13.0,29.7,11111222
Chevron,ioos:station:wmo:42372:2,2023-07-01T13:52:00Z,27.7790,-90.5190,12.9,29.7,11111222
Chevron,ioos:station:wmo:42372:2,2023-07-01T14:02:00Z,27.7790,-90.5190,13.0,29.7,11111222
Chevron,ioos:station:wmo:42372:2,2023-07-01T14:12:00Z,27.7790,-90.5190,12.8,29.8,11111222
Chevron,ioos:station:wmo:42372:2,2023-07-01T14:22:00Z,27.7790,-90.5190,13.0,29.8,11111222
Chevron,ioos:station:wmo:42372:2,2023-07-01T14:32:00Z,27.7790,-90.5190,12.9,29.8,11111222
Chevron,ioos:station:wmo:42372:2,2023-07-01T14:42:00Z,27.7790,-90.5190,13.0,29.7,11111222
Chevron,ioos:station:wmo:42372:2,2023-07-01T14:52:00Z,27.7790,-90.5190,13.0,29.7,11111222
Chevron,ioos:station:wmo:42372:2,2023-07-01T15:02:00Z,27.7790,-90.5190,13.0,29.7,11111222
Chevron,ioos:station:wmo:42372:2,2023-07-01T15:12:00Z,27.7790,-90.5190,13.0,29.7,11111222
Chevron,ioos:station:wmo:42372:2,2023-07-01T15:22:00Z,27.7790,-90.5190,12.9,29.6,11111222
Chevron,ioos:station:wmo:42372:2,2023-07-01T15:32:00Z,27.7790,-90.5190,13.0,29.6,11111222
Chevron,ioos:station:wmo:42372:2,2023-07-01T15:42:00Z,27.7790,-90.5190,13.0,29.6,11111222
Chevron,ioos:station:wmo:42372:2,2023-07-01T15:52:00Z,27.7790,-90.5190,13.0,29.6,11111222
Chevron,ioos:station:wmo:42372:2,2023-07-01T16:02:00Z,27.7790,-90.5190,13.0,29.7,11111222
Chevron,ioos:station:wmo:42372:2,2023-07-01T16:12:00Z,27.7790,-90.5190,13.0,29.7,11111222
Chevron,ioos:station:wmo:42372:2,2023-07-01T16:22:00Z,27.7790,-90.5190,12.8,29.8,11111222
Chevron,ioos:station:wmo:42372:2,2023-07-01T16:32:00Z,27.7790,-90.5190,12.9,29.7,11111222
Chevron,ioos:station:wmo:42372:2,2023-07-01T16:42:00Z,27.7790,-90.5190,13.1,29.6,11111222
Chevron,ioos:station:wmo:42372:2,2023-07-01T16:52:00Z,27.7790,-90.5190,12.9,29.6,11111222
Chevron,ioos:station:wmo:42372:2,2023-07-01T17:02:00Z,27.7790,-90.5190,12.9,29.6,11111222
Chevron,ioos:station:wmo:42372:2,2023-07-01T17:12:00Z,27.7790,-90.5190,12.9,29.7,11111222
Chevron,ioos:station:wmo:42372:2,2023-07-01T17:22:00Z,27.7790,-90.5190,13.0,29.7,11111222
Chevron,ioos:station:wmo:42372:2,2023-07-01T17:32:00Z,27.7790,-90.5190,13.0,29.7,11111222
Chevron,ioos:station:wmo:42372:2,2023-07-01T17:42:00Z,27.7790,-90.5190,12.9,29.6,11111222
Chevron,ioos:station:wmo:42372:2,2023-07-01T17:52:00Z,27.7790,-90.5190,13.1,29.6,11111222
Chevron,ioos:station:wmo:42372:2,2023-07-01T18:02:00Z,27.7790,-90.5190,13.0,29.5,11111222
Chevron,ioos:station:wmo:42372:2,2023-07-01T18:12:00Z,27.7790,-90.5190,13.1,29.4,11111222
Chevron,ioos:station:wmo:42372:2,2023-07-01T18:22:00Z,27.7790,-90.5190,13.0,29.4,11111222
Chevron,ioos:station:wmo:42372:2,2023-07-01T18:32:00Z,27.7790,-90.5190,13.2,29.3,11111222
Chevron,ioos:station:wmo:42372:2,2023-07-01T18:43:00Z,27.7790,-90.5190,13.2,29.3,11111222
Chevron,ioos:station:wmo:42372:2,2023-07-01T18:53:00Z,27.7790,-90.5190,13.1,29.3,11111222
Chevron,ioos:station:wmo:42372:2,2023-07-01T19:03:00Z,27.7790,-90.5190,13.1,29.3,11111222
Chevron,ioos:station:wmo:42372:2,2023-07-01T19:13:00Z,27.7790,-90.5190,13.1,29.3,11111222
Chevron,ioos:station:wmo:42372:2,2023-07-01T19:23:00Z,27.7790,-90.5190,13.1,29.2,11111222
Chevron,ioos:station:wmo:42372:2,2023-07-01T19:33:00Z,27.7790,-90.5190,13.1,29.2,11111222
Chevron,ioos:station:wmo:42372:2,2023-07-01T19:43:00Z,27.7790,-90.5190,13.0,29.3,11111222
Chevron,ioos:station:wmo:42372:2,2023-07-01T19:53:00Z,27.7790,-90.5190,13.1,29.3,11111222
Chevron,ioos:station:wmo:42372:2,2023-07-01T20:03:00Z,27.7790,-90.5190,13.0,29.3,11111222
Chevron,ioos:station:wmo:42372:2,2023-07-01T20:13:00Z,27.7790,-90.5190,13.1,29.3,11111222
Chevron,ioos:station:wmo:42372:2,2023-07-01T20:23:00Z,27.7790,-90.5190,13.0,29.3,11111222
Chevron,ioos:station:wmo:42372:2,2023-07-01T20:33:00Z,27.7790,-90.5190,13.0,29.3,11111222
Chevron,ioos:station:wmo:42372:2,2023-07-01T20:43:00Z,27.7790,-90.5190,13.0,29.2,11111222
Chevron,ioos:station:wmo:42372:2,2023-07-01T20:53:00Z,27.7790,-90.5190,13.2,28.9,11111222
Chevron,ioos:station:wmo:42372:2,2023-07-01T21:03:00Z,27.7790,-90.5190,13.0,29.0,11111222
Chevron,ioos:station:wmo:42372:2,2023-07-01T21:13:00Z,27.7790,-90.5190,13.3,29.0,11111222
Chevron,ioos:station:wmo:42372:2,2023-07-01T21:23:00Z,27.7790,-90.5190,13.1,29.1,11111222
Chevron,ioos:station:wmo:42372:2,2023-07-01T21:33:00Z,27.7790,-90.5190,13.2,29.1,11111222
Chevron,ioos:station:wmo:42372:2,2023-07-01T21:43:00Z,27.7790,-90.5190,13.1,29.1,11111222
Chevron,ioos:station:wmo:42372:2,2023-07-01T21:53:00Z,27.7790,-90.5190,13.1,29.1,11111222
Chevron,ioos:station:wmo:42372:2,2023-07-01T22:03:00Z,27.7790,-90.5190,13.2,29.1,11111222
Chevron,ioos:station:wmo:42372:2,2023-07-01T22:13:00Z,27.7790,-90.5190,13.3,28.9,11111222
Chevron,ioos:station:wmo:42372:2,2023-07-01T22:23:00Z,27.7790,-90.5190,13.1,28.9,11111222
Chevron,ioos:station:wmo:42372:2,2023-07-01T22:33:00Z,27.7790,-90.5190,13.2,28.9,11111222
Chevron,ioos:station:wmo:42372:2,2023-07-01T22:43:00Z,27.7790,-90.5190,13.2,29.0,11111222
Chevron,ioos:station:wmo:42372:2,2023-07-01T22:53:00Z,27.7790,-90.5190,13.1,29.0,11111222
Chevron,ioos:station:wmo:42372:2,2023-07-01T23:03:00Z,27.7790,-90.5190,13.2,28.8,11111222
Chevron,ioos:station:wmo:42372:2,2023-07-01T23:13:00Z,27.7790,-90.5190,13.3,28.8,11111222
Chevron,ioos:station:wmo:42372:2,2023-07-01T23:23:00Z,27.7790,-90.5190,13.2,28.7,11111222
Chevron,ioos:station:wmo:42372:2,2023-07-01T23:33:00Z,27.7790,-90.5190,13.0,28.6,11111222
Chevron,ioos:station:wmo:42372:2,2023-07-01T23:43:00Z,27.7790,-90.5190,13.0,28.3,11111222
Chevron,ioos:station:wmo:42372:2,2023-07-01T23:53:00Z,27.7790,-90.5190,13.0,28.4,11111222
Chevron,ioos:station:wmo:42372:2,2023-07-02T00:03:00Z,27.7790,-90.5190,12.9,28.2,11111222
Chevron,ioos:station:wmo:42372:2,2023-07-02T00:13:00Z,27.7790,-90.5190,13.0,28.0,11111222
Chevron,ioos:station:wmo:42372:2,2023-07-02T00:23:00Z,27.7790,-90.5190,13.2,27.9,11111222
Chevron,ioos:station:wmo:42372:2,2023-07-02T00:33:00Z,27.7790,-90.5190,13.1,28.2,11111222
Chevron,ioos:station:wmo:42372:2,2023-07-02T00:43:00Z,27.7790,-90.5190,13.0,28.1,11111222
Chevron,ioos:station:wmo:42372:2,2023-07-02T00:53:00Z,27.7790,-90.5190,13.1,28.3,11111222
Chevron,ioos:station:wmo:42372:2,2023-07-02T01:03:00Z,27.7790,-90.5190,13.1,28.4,11111222
Chevron,ioos:station:wmo:42372:2,2023-07-02T01:13:00Z,27.7790,-90.5190,13.0,28.4,11111222
Chevron,ioos:station:wmo:42372:2,2023-07-02T01:23:00Z,27.7790,-90.5190,13.0,28.5,11111222
Chevron,ioos:station:wmo:42372:2,2023-07-02T01:33:00Z,27.7790,-90.5190,13.3,28.7,11111222
Chevron,ioos:station:wmo:42372:2,2023-07-02T01:43:00Z,27.7790,-90.5190,13.1,28.5,11111222
Chevron,ioos:station:wmo:42372:2,2023-07-02T01:53:00Z,27.7790,-90.5190,13.2,28.7,11111222
Chevron,ioos:station:wmo:42372:2,2023-07-02T02:03:00Z,27.7790,-90.5190,13.3,28.7,11111222
Chevron,ioos:station:wmo:42372:2,2023-07-02T02:13:00Z,27.7790,-90.5190,13.2,28.8,11111222
Chevron,ioos:station:wmo:42372:2,2023-07-02T02:23:00Z,27.7790,-90.5190,13.1,28.7,11111222
Chevron,ioos:station:wmo:42372:2,2023-07-02T02:33:00Z,27.7790,-90.5190,13.2,29.0,11111222
Chevron,ioos:station:wmo:42372:2,2023-07-02T02:43:00Z,27.7790,-90.5190,13.1,29.1,11111222
Chevron,ioos:station:wmo:42372:2,2023-07-02T02:53:00Z,27.7790,-90.5190,13.2,28.8,11111222
Chevron,ioos:station:wmo:42372:2,2023-07-02T03:03:00Z,27.7790,-90.5190,13.2,28.8,11111222
Chevron,ioos:station:wmo:42372:2,2023-07-02T03:13:00Z,27.7790,-90.5190,13.2,28.8,11111222
Chevron,ioos:station:wmo:42372:2,2023-07-02T03:23:00Z,27.7790,-90.5190,13.2,28.6,11111222
Chevron,ioos:station:wmo:42372:2,2023-07-02T03:33:00Z,27.7790,-90.5190,13.2,28.9,11111222
Chevron,ioos:station:wmo:42372:2,2023-07-02T03:43:00Z,27.7790,-90.5190,13.2,28.9,11111222
Chevron,ioos:station:wmo:42372:2,2023-07-02T03:53:00Z,27.7790,-90.5190,13.2,29.0,11111222
Chevron,ioos:station:wmo:42372:2,2023-07-02T04:03:00Z,27.7790,-90.5190,13.2,28.9,11111222
Chevron,ioos:station:wmo:42372:2,2023-07-02T04:13:00Z,27.7790,-90.5190,13.2,28.9,11111222
Chevron,ioos:station:wmo:42372:2,2023-07-02T04:23:00Z,27.7790,-90.5190,13.2,28.9,11111222
Chevron,ioos:station:wmo:42372:2,2023-07-02T04:33:00Z,27.7790,-90.5190,13.2,28.9,11111222
Chevron,ioos:station:wmo:42372:2,2023-07-02T04:43:00Z,27.7790,-90.5190,13.1,29.1,11111222
Chevron,ioos:station:wmo:42372:2,2023-07-02T04:53:00Z,27.7790,-90.5190,13.1,29.0,11111222
Chevron,ioos:station:wmo:42372:2,2023-07-02T05:03:00Z,27.7790,-90.5190,13.1,28.9,11111222
Chevron,ioos:station:wmo:42372:2,2023-07-02T05:13:00Z,27.7790,-90.5190,13.1,29.0,11111222
Chevron,ioos:station:wmo:42372:2,2023-07-02T05:23:00Z,27.7790,-90.5190,13.0,29.4,11111222
Chevron,ioos:station:wmo:42372:2,2023-07-02T05:33:00Z,27.7790,-90.5190,13.1,29.2,11111222
Chevron,ioos:station:wmo:42372:2,2023-07-02T05:43:00Z,27.7790,-90.5190,13.2,29.0,11111222
Chevron,ioos:station:wmo:42372:2,2023-07-02T05:53:00Z,27.7790,-90.5190,13.1,29.1,11111222
Chevron,ioos:station:wmo:42372:2,2023-07-02T06:03:00Z,27.7790,-90.5190,13.2,28.9,11111222
Chevron,ioos:station:wmo:42372:2,2023-07-02T06:13:00Z,27.7790,-90.5190,13.0,28.5,11111222
Chevron,ioos:station:wmo:42372:2,2023-07-02T06:23:00Z,27.7790,-90.5190,12.9,28.4,11111222
Chevron,ioos:station:wmo:42372:2,2023-07-02T06:33:00Z,27.7790,-90.5190,13.0,28.4,11111222
Chevron,ioos:station:wmo:42372:2,2023-07-02T06:43:00Z,27.7790,-90.5190,12.8,28.5,11111222
Chevron,ioos:station:wmo:42372:2,2023-07-02T06:53:00Z,27.7790,-90.5190,13.1,28.5,11111222
Chevron,ioos:station:wmo:42372:2,2023-07-02T07:03:00Z,27.7790,-90.5190,13.0,28.5,11111222
Chevron,ioos:station:wmo:42372:2,2023-07-02T07:13:00Z,27.7790,-90.5190,13.2,28.6,11111222
Chevron,ioos:station:wmo:42372:2,2023-07-02T07:23:00Z,27.7790,-90.5190,13.3,28.6,11111222
Chevron,ioos:station:wmo:42372:2,2023-07-02T07:33:00Z,27.7790,-90.5190,13.0,28.6,11111222
Chevron,ioos:station:wmo:42372:2,2023-07-02T07:43:00Z,27.7790,-90.5190,13.0,28.6,11111222
Chevron,ioos:station:wmo:42372:2,2023-07-02T07:53:00Z,27.7790,-90.5190,13.2,28.6,11111222
Chevron,ioos:station:wmo:42372:2,2023-07-02T08:03:00Z,27.7790,-90.5190,13.1,28.6,11111222
Chevron,ioos:station:wmo:42372:2,2023-07-02T08:13:00Z,27.7790,-90.5190,13.0,28.6,11111222
Chevron,ioos:station:wmo:42372:2,2023-07-02T08:23:00Z,27.7790,-90.5190,13.1,28.5,11111222
Chevron,ioos:station:wmo:42372:2,2023-07-02T08:33:00Z,27.7790,-90.5190,12.9,28.5,11111222
Chevron,ioos:station:wmo:42372:2,2023-07-02T08:43:00Z,27.7790,-90.5190,13.1,28.6,11111222
Chevron,ioos:station:wmo:42372:2,2023-07-02T08:53:00Z,27.7790,-90.5190,13.2,28.7,11111222
Chevron,ioos:station:wmo:42372:2,2023-07-02T09:03:00Z,27.7790,-90.5190,13.2,28.7,11111222
Chevron,ioos:station:wmo:42372:2,2023-07-02T09:13:00Z,27.7790,-90.5190,13.1,28.6,11111222
Chevron,ioos:station:wmo:42372:2,2023-07-02T09:23:00Z,27.7790,-90.5190,13.4,28.8,11111222
Chevron,ioos:station:wmo:42372:2,2023-07-02T09:33:00Z,27.7790,-90.5190,13.2,28.9,11111222
Chevron,ioos:station:wmo:42372:2,2023-07-02T09:43:00Z,27.7790,-90.5190,13.2,29.0,11111222
Chevron,ioos:station:wmo:42372:2,2023-07-02T09:53:00Z,27.7790,-90.5190,13.2,29.1,11111222
Chevron,ioos:station:wmo:42372:2,2023-07-02T10:03:00Z,27.7790,-90.5190,13.1,29.2,11111222
Chevron,ioos:station:wmo:42372:2,2023-07-02T10:13:00Z,27.7790,-90.5190,13.2,29.3,11111222
Chevron,ioos:station:wmo:42372:2,2023-07-02T10:23:00Z,27.7790,-90.5190,13.1,29.4,11111222
Chevron,ioos:station:wmo:42372:2,2023-07-02T10:33:00Z,27.7790,-90.5190,13.0,29.5,11111222
Chevron,ioos:station:wmo:42372:2,2023-07-02T10:43:00Z,27.7790,-90.5190,13.1,29.6,11111222
Chevron,ioos:station:wmo:42372:2,2023-07-02T10:53:00Z,27.7790,-90.5190,13.0,29.6,11111222
Chevron,ioos:station:wmo:42372:2,2023-07-02T11:03:00Z,27.7790,-90.5190,12.9,29.6,11111222
Chevron,ioos:station:wmo:42372:2,2023-07-02T11:13:00Z,27.7790,-90.5190,12.9,29.5,11111222
Chevron,ioos:station:wmo:42372:2,2023-07-02T11:23:00Z,27.7790,-90.5190,12.8,29.7,11111222
Chevron,ioos:station:wmo:42372:2,2023-07-02T11:33:00Z,27.7790,-90.5190,12.8,29.9,11111222
Chevron,ioos:station:wmo:42372:2,2023-07-02T11:43:00Z,27.7790,-90.5190,12.7,29.8,11111222
Chevron,ioos:station:wmo:42372:2,2023-07-02T11:53:00Z,27.7790,-90.5190,12.7,29.9,11111222
Chevron,ioos:station:wmo:42372:2,2023-07-02T12:03:00Z,27.7790,-90.5190,12.6,29.9,11111222
Chevron,ioos:station:wmo:42372:2,2023-07-02T12:13:00Z,27.7790,-90.5190,12.8,29.9,11111222
Chevron,ioos:station:wmo:42372:2,2023-07-02T12:23:00Z,27.7790,-90.5190,12.5,30.0,11111222
Chevron,ioos:station:wmo:42372:2,2023-07-02T12:33:00Z,27.7790,-90.5190,12.6,30.1,11111222
Chevron,ioos:station:wmo:42372:2,2023-07-02T12:43:00Z,27.7790,-90.5190,12.5,30.2,11111222
Chevron,ioos:station:wmo:42372:2,2023-07-02T12:53:00Z,27.7790,-90.5190,12.7,30.1,11111222
Chevron,ioos:station:wmo:42372:2,2023-07-02T13:03:00Z,27.7790,-90.5190,12.5,30.1,11111222
Chevron,ioos:station:wmo:42372:2,2023-07-02T13:13:00Z,27.7790,-90.5190,12.6,30.1,11111222
Chevron,ioos:station:wmo:42372:2,2023-07-02T13:23:00Z,27.7790,-90.5190,12.6,30.1,11111222
Chevron,ioos:station:wmo:42372:2,2023-07-02T13:33:00Z,27.7790,-90.5190,12.8,30.0,11111222
Chevron,ioos:station:wmo:42372:2,2023-07-02T13:43:00Z,27.7790,-90.5190,12.6,30.1,11111222
Chevron,ioos:station:wmo:42372:2,2023-07-02T13:53:00Z,27.7790,-90.5190,12.7,29.9,11111222
Chevron,ioos:station:wmo:42372:2,2023-07-02T14:03:00Z,27.7790,-90.5190,12.6,29.9,11111222
Chevron,ioos:station:wmo:42372:2,2023-07-02T14:13:00Z,27.7790,-90.5190,12.7,29.9,11111222
Chevron,ioos:station:wmo:42372:2,2023-07-02T14:23:00Z,27.7790,-90.5190,12.7,29.9,11111222
Chevron,ioos:station:wmo:42372:2,2023-07-02T14:33:00Z,27.7790,-90.5190,12.6,29.9,11111222
Chevron,ioos:station:wmo:42372:2,2023-07-02T14:43:00Z,27.7790,-90.5190,12.7,29.9,11111222
Chevron,ioos:station:wmo:42372:2,2023-07-02T14:53:00Z,27.7790,-90.5190,13.1,29.7,11111222
Chevron,ioos:station:wmo:42372:2,2023-07-02T15:03:00Z,27.7790,-90.5190,13.0,29.6,11111222
Chevron,ioos:station:wmo:42372:2,2023-07-02T15:13:00Z,27.7790,-90.5190,12.9,29.6,11111222
Chevron,ioos:station:wmo:42372:2,2023-07-02T15:23:00Z,27.7790,-90.5190,12.9,29.8,11111222
Chevron,ioos:station:wmo:42372:2,2023-07-02T15:33:00Z,27.7790,-90.5190,13.0,29.7,11111222
Chevron,ioos:station:wmo:42372:2,2023-07-02T15:43:00Z,27.7790,-90.5190,12.9,29.7,11111222
Chevron,ioos:station:wmo:42372:2,2023-07-02T15:53:00Z,27.7790,-90.5190,12.9,29.7,11111222
Chevron,ioos:station:wmo:42372:2,2023-07-02T16:03:00Z,27.7790,-90.5190,12.9,29.8,11111222
Chevron,ioos:station:wmo:42372:2,2023-07-02T16:13:00Z,27.7790,-90.5190,12.7,29.9,11111222
Chevron,ioos:station:wmo:42372:2,2023-07-02T16:23:00Z,27.7790,-90.5190,12.7,29.8,11111222
Chevron,ioos:station:wmo:42372:2,2023-07-02T16:33:00Z,27.7790,-90.5190,12.9,29.8,11111222
Chevron,ioos:station:wmo:42372:2,2023-07-02T16:43:00Z,27.7790,-90.5190,12.9,29.6,11111222
Chevron,ioos:station:wmo:42372:2,2023-07-02T16:53:00Z,27.7790,-90.5190,12.9,29.5,11111222
Chevron,ioos:station:wmo:42372:2,2023-07-02T17:03:00Z,27.7790,-90.5190,13.1,29.5,11111222
Chevron,ioos:station:wmo:42372:2,2023-07-02T17:13:00Z,27.7790,-90.5190,13.0,29.5,11111222
Chevron,ioos:station:wmo:42372:2,2023-07-02T17:23:00Z,27.7790,-90.5190,13.0,29.6,11111222
Chevron,ioos:station:wmo:42372:2,2023-07-02T17:33:00Z,27.7790,-90.5190,13.0,29.5,11111222
Chevron,ioos:station:wmo:42372:2,2023-07-02T17:43:00Z,27.7790,-90.5190,13.1,29.5,11111222
Chevron,ioos:station:wmo:42372:2,2023-07-02T17:53:00Z,27.7790,-90.5190,13.0,29.5,11111222
Chevron,ioos:station:wmo:42372:2,2023-07-02T18:03:00Z,27.7790,-90.5190,13.0,29.5,11111222
Chevron,ioos:station:wmo:42372:2,2023-07-02T18:13:00Z,27.7790,-90.5190,13.0,29.3,11111222
Chevron,ioos:station:wmo:42372:2,2023-07-02T18:23:00Z,27.7790,-90.5190,13.3,29.2,11111222
Chevron,ioos:station:wmo:42372:2,2023-07-02T18:33:00Z,27.7790,-90.5190,13.1,29.3,11111222
Chevron,ioos:station:wmo:42372:2,2023-07-02T18:43:00Z,27.7790,-90.5190,13.1,29.2,11111222
Chevron,ioos:station:wmo:42372:2,2023-07-02T18:53:00Z,27.7790,-90.5190,13.1,29.2,11111222
Chevron,ioos:station:wmo:42372:2,2023-07-02T19:03:00Z,27.7790,-90.5190,13.2,29.1,11111222
Chevron,ioos:station:wmo:42372:2,2023-07-02T19:13:00Z,27.7790,-90.5190,13.3,29.1,11111222
Chevron,ioos:station:wmo:42372:2,2023-07-02T19:23:00Z,27.7790,-90.5190,13.3,29.0,11111222
Chevron,ioos:station:wmo:42372:2,2023-07-02T19:33:00Z,27.7790,-90.5190,13.2,29.0,11111222